Weather History for KHEQ - February, 2014

Change the Weather History Date:

Saturday, February 15, 2014

  Actual Average Record
Temperature  
Mean Temperature 40 °F -  
Max Temperature 51 °F 43 °F 51 °F (2014)
Min Temperature 30 °F 18 °F 19 °F (2015)
Degree Days  
Heating Degree Days 24    
Moisture  
Dew Point 31 °F    
Average Humidity 70    
Maximum Humidity 93    
Minimum Humidity 43    
Precipitation  
Precipitation 0.00 in - - ()
Sea Level Pressure  
Sea Level Pressure 29.94 in    
Wind  
Wind Speed 15 mph (WNW)    
Max Wind Speed 26 mph    
Max Gust Speed 36 mph    
Visibility 10 miles    
Events Rain    
Averages and records for this station are not official NWS values.
T = Trace of Precipitation, MM = Missing Value Source: NWS Daily Summary

Daily Weather History Graph

Daily Weather History Graph

Search for Another Location

Airport or City:

Trip Planner

Search our weather history database for the weather conditions in past years. The results will help you decide how hot, cold, wet, or windy it might be!

Date:

Astronomy

Feb. 15, 2014 Rise Set
Actual Time 6:42 AM MST 5:24 PM MST
Civil Twilight 6:14 AM MST 5:52 PM MST
Nautical Twilight 5:42 AM MST 6:24 PM MST
Astronomical Twilight 5:11 AM MST 6:55 PM MST
Moon 6:26 PM MST (2/15) 6:42 AM MST (2/15)
Length of Visible Light 11h 37m
Length of Day
10h 41m
Waxing Gibbous, 99% of the Moon is Illuminated
Feb 15
Waxing Gibbous
Feb 22
Last Quarter
Mar 1
New
Mar 8
First Quarter
Mar 16
Full

Hourly Weather History & Observations

Time (MST) Temp. Windchill Dew Point Humidity Pressure Visibility Wind Dir Wind Speed Gust Speed Precip Events Conditions
12:15 AM 41.0 °F 32.5 °F 32.0 °F 70% 29.81 in 10.0 mi SSW 17.3 mph - N/A   Overcast
12:35 AM 41.0 °F 33.5 °F 32.0 °F 70% 29.80 in 10.0 mi SSW 13.8 mph - N/A   Light Drizzle
12:55 AM 41.0 °F 33.9 °F 32.0 °F 70% 29.78 in 10.0 mi SSW 12.7 mph - N/A   Overcast
1:15 AM 41.0 °F 33.9 °F 32.0 °F 70% 29.77 in 10.0 mi SSW 12.7 mph - N/A   Overcast
1:35 AM 37.4 °F 29.3 °F 30.2 °F 75% 29.76 in 10.0 mi SSW 12.7 mph - N/A   Mostly Cloudy
1:55 AM 37.4 °F 29.3 °F 30.2 °F 75% 29.75 in 10.0 mi SSW 12.7 mph - N/A   Mostly Cloudy
2:15 AM 37.4 °F 32.1 °F 30.2 °F 75% 29.75 in 10.0 mi SW 6.9 mph - N/A   Mostly Cloudy
2:35 AM 37.4 °F 30.3 °F 30.2 °F 75% 29.73 in 10.0 mi SW 10.4 mph - N/A   Scattered Clouds
2:55 AM 37.4 °F 30.8 °F 30.2 °F 75% 29.73 in 10.0 mi SW 9.2 mph - N/A   Scattered Clouds
3:15 AM 37.4 °F 29.3 °F 32.0 °F 81% 29.72 in 10.0 mi SW 12.7 mph - N/A   Mostly Cloudy
3:35 AM 37.4 °F 29.8 °F 32.0 °F 81% 29.72 in 10.0 mi WSW 11.5 mph - N/A   Scattered Clouds
3:55 AM 37.4 °F 29.8 °F 32.0 °F 81% 29.72 in 10.0 mi West 11.5 mph - N/A   Mostly Cloudy
4:15 AM 37.4 °F 30.3 °F 32.0 °F 81% 29.72 in 10.0 mi West 10.4 mph - N/A   Mostly Cloudy
4:35 AM 37.4 °F 30.8 °F 32.0 °F 81% 29.72 in 10.0 mi West 9.2 mph - N/A   Overcast
4:55 AM 37.4 °F 30.8 °F 32.0 °F 81% 29.72 in 10.0 mi WSW 9.2 mph - N/A   Overcast
5:15 AM 37.4 °F 30.3 °F 32.0 °F 81% 29.75 in 10.0 mi West 10.4 mph - N/A Rain Rain
5:35 AM 46.4 °F 38.7 °F 37.4 °F 71% 29.76 in 10.0 mi NW 20.7 mph 28.8 mph N/A Rain Light Rain
5:55 AM 46.4 °F 39.0 °F 35.6 °F 66% 29.76 in 10.0 mi WNW 19.6 mph 28.8 mph N/A   Overcast
6:15 AM 46.4 °F 39.2 °F 35.6 °F 66% 29.78 in 10.0 mi NW 18.4 mph 28.8 mph N/A   Overcast
6:35 AM 42.8 °F 34.0 °F 35.6 °F 76% 29.81 in 10.0 mi NNW 20.7 mph 25.3 mph N/A   Mostly Cloudy
6:55 AM 41.0 °F 31.9 °F 33.8 °F 76% 29.84 in 10.0 mi NNW 19.6 mph 24.2 mph N/A   Mostly Cloudy
7:15 AM 37.4 °F 27.8 °F 33.8 °F 87% 29.87 in 10.0 mi North 17.3 mph - N/A Rain Rain
7:35 AM 37.4 °F 27.2 °F 33.8 °F 87% 29.89 in 10.0 mi NNW 19.6 mph 25.3 mph N/A Rain Light Rain
7:55 AM 41.0 °F 30.9 °F 35.6 °F 81% 29.89 in 10.0 mi NNW 24.2 mph - N/A   Mostly Cloudy
8:15 AM 41.0 °F 31.4 °F 35.6 °F 81% 29.91 in 10.0 mi NNW 21.9 mph 31.1 mph N/A   Mostly Cloudy
8:35 AM 41.0 °F 30.7 °F 35.6 °F 81% 29.92 in 10.0 mi NNW 25.3 mph - N/A   Overcast
8:55 AM 39.2 °F 28.5 °F 33.8 °F 81% 29.94 in 10.0 mi NNW 24.2 mph 31.1 mph N/A Rain Light Rain
9:15 AM 41.0 °F 31.6 °F 35.6 °F 81% 29.95 in 10.0 mi NNW 20.7 mph 28.8 mph N/A Rain Light Rain
9:35 AM 41.0 °F 31.9 °F 35.6 °F 81% 29.94 in 10.0 mi NNW 19.6 mph 26.5 mph N/A Rain Light Rain
9:55 AM 42.8 °F 34.0 °F 35.6 °F 76% 29.95 in 10.0 mi NNW 20.7 mph 27.6 mph N/A   Overcast
10:15 AM 42.8 °F 33.8 °F 35.6 °F 76% 29.96 in 10.0 mi NNW 21.9 mph 28.8 mph N/A   Overcast
10:35 AM 42.8 °F 33.8 °F 33.8 °F 70% 29.96 in 10.0 mi NNW 21.9 mph 28.8 mph N/A   Overcast
10:55 AM 44.6 °F 35.5 °F 32.0 °F 61% 29.98 in 10.0 mi NNW 25.3 mph 29.9 mph N/A   Mostly Cloudy
11:15 AM 46.4 °F 37.9 °F 32.0 °F 57% 29.98 in 10.0 mi NNW 25.3 mph 32.2 mph N/A   Mostly Cloudy
11:35 AM 46.4 °F 37.7 °F 32.0 °F 57% 29.96 in 10.0 mi NNW 26.5 mph 32.2 mph N/A   Overcast
11:55 AM 46.4 °F 37.9 °F 32.0 °F 57% 29.96 in 10.0 mi NNW 25.3 mph 31.1 mph N/A   Mostly Cloudy
12:15 PM 46.4 °F 38.5 °F 32.0 °F 57% 29.96 in 10.0 mi NNW 21.9 mph 35.7 mph N/A   Mostly Cloudy
12:35 PM 48.2 °F - 32.0 °F 54% 29.97 in 10.0 mi NNW 24.2 mph 31.1 mph N/A   Overcast
12:55 PM 48.2 °F - 30.2 °F 50% 29.97 in 10.0 mi North 21.9 mph 32.2 mph N/A   Overcast
1:15 PM 48.2 °F - 28.4 °F 46% 29.99 in 10.0 mi North 23.0 mph 28.8 mph N/A   Overcast
1:35 PM 51.8 °F - 30.2 °F 44% 30.00 in 10.0 mi NNW 18.4 mph 26.5 mph N/A   Overcast
1:55 PM 48.2 °F - 26.6 °F 43% 30.00 in 10.0 mi NNW 19.6 mph 25.3 mph N/A   Overcast
2:15 PM 48.2 °F - 26.6 °F 43% 30.01 in 10.0 mi NNW 21.9 mph 26.5 mph N/A   Overcast
2:35 PM 51.8 °F - 30.2 °F 44% 30.01 in 10.0 mi NW 19.6 mph 23.0 mph N/A   Overcast
2:55 PM 51.8 °F - 30.2 °F 44% 30.01 in 10.0 mi NNW 18.4 mph 26.5 mph N/A   Mostly Cloudy
3:15 PM 50.0 °F - 28.4 °F 43% 30.02 in 10.0 mi NNW 19.6 mph 23.0 mph N/A   Scattered Clouds
3:35 PM 51.8 °F - 30.2 °F 44% 30.02 in 10.0 mi NW 13.8 mph 25.3 mph N/A   Mostly Cloudy
3:55 PM 48.2 °F - 26.6 °F 43% 30.03 in 10.0 mi NNW 16.1 mph 23.0 mph N/A   Overcast
4:15 PM 46.4 °F 40.1 °F 26.6 °F 46% 30.03 in 10.0 mi NNW 15.0 mph 20.7 mph N/A   Mostly Cloudy
4:35 PM 46.4 °F 40.7 °F 26.6 °F 46% 30.04 in 10.0 mi NNW 12.7 mph - N/A   Mostly Cloudy
4:55 PM 44.6 °F 40.7 °F 28.4 °F 53% 30.04 in 10.0 mi NW 6.9 mph - N/A   Mostly Cloudy
5:15 PM 44.6 °F 42.2 °F 30.2 °F 57% 30.06 in 10.0 mi NW 4.6 mph - N/A   Scattered Clouds
5:35 PM 44.6 °F 41.4 °F 28.4 °F 53% 30.06 in 10.0 mi NW 5.8 mph - N/A   Mostly Cloudy
5:55 PM 42.8 °F 39.3 °F 28.4 °F 57% 30.06 in 10.0 mi NW 5.8 mph - N/A   Overcast
6:15 PM 42.8 °F 39.3 °F 30.2 °F 61% 30.07 in 10.0 mi WNW 5.8 mph - N/A   Overcast
6:35 PM 41.0 °F 38.0 °F 30.2 °F 65% 30.07 in 10.0 mi West 4.6 mph - N/A   Scattered Clouds
6:55 PM 35.6 °F 29.9 °F 30.2 °F 81% 30.08 in 10.0 mi West 6.9 mph - N/A   Clear
7:15 PM 35.6 °F 30.7 °F 30.2 °F 81% 30.07 in 10.0 mi SW 5.8 mph - N/A   Clear
7:35 PM 33.8 °F 28.6 °F 28.4 °F 81% 30.07 in 10.0 mi SSW 5.8 mph - N/A   Clear
7:55 PM 33.8 °F 29.6 °F 30.2 °F 87% 30.08 in 10.0 mi SW 4.6 mph - N/A   Clear
8:15 PM 33.8 °F 25.8 °F 28.4 °F 81% 30.09 in 10.0 mi SW 10.4 mph - N/A   Clear
8:35 PM 33.8 °F 28.6 °F 30.2 °F 87% 30.08 in 10.0 mi SW 5.8 mph - N/A   Scattered Clouds
8:55 PM 33.8 °F 28.6 °F 30.2 °F 87% 30.08 in 10.0 mi WSW 5.8 mph - N/A   Scattered Clouds
9:15 PM 33.8 °F 28.6 °F 30.2 °F 87% 30.08 in 10.0 mi West 5.8 mph - N/A   Clear
9:35 PM 33.8 °F 27.7 °F 32.0 °F 93% 30.08 in 10.0 mi West 6.9 mph - N/A   Clear
9:55 PM 33.8 °F 30.8 °F 32.0 °F 93% 30.07 in 10.0 mi West 3.5 mph - N/A   Clear
10:15 PM 32.0 °F 26.4 °F 30.2 °F 93% 30.08 in 10.0 mi WSW 5.8 mph - N/A   Clear
10:35 PM 32.0 °F 26.4 °F 28.4 °F 87% 30.07 in 10.0 mi West 5.8 mph - N/A   Clear
10:55 PM 30.2 °F 25.4 °F 26.6 °F 86% 30.06 in 10.0 mi SW 4.6 mph - N/A   Clear
11:15 PM 30.2 °F 24.3 °F 26.6 °F 86% 30.05 in 10.0 mi SSW 5.8 mph - N/A   Clear
11:35 PM 30.2 °F 26.7 °F 26.6 °F 86% 30.05 in 10.0 mi SW 3.5 mph - N/A   Clear
11:55 PM 32.0 °F 25.6 °F 28.4 °F 87% 30.04 in 10.0 mi SW 6.9 mph - N/A   Clear